Content
SEND FEEDBACK

Daily
Averages
Monthly
Summary
United States of America

MONROE, WISCONSIN


Home > North America > United States > Wisconsin
Elevation: 1020 feet     Latitude: 42 36N     Longitude: 089 39W

WEATHER
 
SELECT A DAY
Number of Records: 370,431;   Date Range: 1/1/99 - 12/27/14
 
SHARE

PRINT THIS DATA

[ ← Previous Day ]
WEATHER ALMANAC - JANUARY 23, 2013
[ Next Day → ]
[ °C ]   °F
Weather ElementAverageHighLow
Temperature14.4 °F21.2 °F (4:55 pm)8.6 °F (10:35 pm)
Dewpoint5 °F14 °F (4:35 pm)-4 °F (12:35 am)
Humidity66.6 %80 % (4:35 pm)52 % (12:35 am)
Barometer30.17 in30.35 in (11:35 pm)30.06 in (2:15 pm)
Wind Speed12.8 mph21.9 mph (8:35 pm)
Wind Gust31.1 mph (8:15 pm)
Weather ElementAverage
Visibility7.7 mi
Wind DirectionWSW (263.3 °)

Weather ElementTotal
Precipitation---
Heating Degree Days50.1 (Base 65)
Averaged from 69 records on January 23, 2013
WEATHER CONDITIONS BREAKOUT
WIND DIRECTION BREAKOUT
WEATHER BY HOUR - JANUARY 23, 2013
[ °C ]   °F
Local TimeTemperatureDewpointHumidityBarometerVisibilityWind DirectionWind SpeedGust SpeedPrecipitationEventsConditions
12:35 AM10.4 °F-4.0 °F52 %30.24 in10.0 miWSW (250°)8.1 mphOvercast
12:55 AM10.4 °F-4.0 °F52 %30.24 in10.0 miWSW (250°)9.2 mphOvercast
1:15 AM10.4 °F-4.0 °F52 %30.24 in10.0 miWSW (250°)9.2 mphOvercast
1:35 AM10.4 °F-4.0 °F52 %30.24 in10.0 miWSW (250°)9.2 mphOvercast
1:55 AM10.4 °F-4.0 °F52 %30.24 in10.0 miWSW (250°)8.1 mphOvercast
2:15 AM10.4 °F-4.0 °F52 %30.24 in10.0 miWSW (240°)9.2 mphOvercast
2:35 AM10.4 °F-4.0 °F52 %30.24 in10.0 miWSW (250°)8.1 mphOvercast
2:55 AM10.4 °F-2.2 °F57 %30.23 in10.0 miWSW (250°)9.2 mphOvercast
3:43 AM10.4 °F-2.2 °F57 %30.22 in10.0 miWSW (240°)5.8 mphOvercast
3:55 AM10.4 °F-0.4 °F62 %30.22 in10.0 miSW (230°)6.9 mphOvercast
4:15 AM12.2 °F-0.4 °F57 %30.21 in10.0 miSW (230°)10.4 mphOvercast
4:16 AM10.4 °F-2.2 °F57 %30.21 in10.0 miSW (220°)10.4 mphOvercast
4:35 AM12.2 °F-0.4 °F57 %30.21 in10.0 miSW (220°)8.1 mphOvercast
4:55 AM12.2 °F-0.4 °F57 %30.20 in10.0 miSW (230°)8.1 mphOvercast
5:15 AM12.2 °F-0.4 °F57 %30.19 in10.0 miSW (230°)9.2 mphOvercast
5:35 AM12.2 °F1.4 °F62 %30.19 in10.0 miWSW (250°)9.2 mphOvercast
5:55 AM12.2 °F1.4 °F62 %30.20 in10.0 miWSW (240°)9.2 mphOvercast
6:15 AM12.2 °F1.4 °F62 %30.19 in10.0 miSW (220°)9.2 mphOvercast
6:35 AM12.2 °F1.4 °F62 %30.19 in10.0 miSSW (210°)8.1 mphOvercast
6:55 AM12.2 °F1.4 °F62 %30.18 in10.0 miSSW (200°)6.9 mphOvercast
7:15 AM12.2 °F3.2 °F67 %30.17 in10.0 miSSW (210°)6.9 mphOvercast
7:55 AM12.2 °F3.2 °F67 %30.17 in10.0 miSW (220°)10.4 mphSnowLight Snow
8:15 AM12.2 °F3.2 °F67 %30.17 in10.0 miSSW (210°)10.4 mphOvercast
8:35 AM14.0 °F3.2 °F62 %30.17 in10.0 miSSW (210°)11.5 mphOvercast
8:55 AM14.0 °F5.0 °F67 %30.16 in10.0 miSSW (210°)11.5 mphOvercast
9:15 AM14.0 °F6.8 °F73 %30.16 in10.0 miSW (220°)12.7 mphSnowLight Snow
9:35 AM14.0 °F8.6 °F79 %30.16 in10.0 miSW (220°)15.0 mphSnowLight Snow
9:55 AM14.0 °F8.6 °F79 %30.16 in3.0 miSSW (210°)13.8 mphSnowLight Snow
10:15 AM14.0 °F8.6 °F79 %30.15 in3.0 miSSW (210°)11.5 mphSnowLight Snow
10:35 AM14.0 °F8.6 °F79 %30.15 in4.0 miSSW (210°)12.7 mphSnowLight Snow
10:55 AM14.0 °F8.6 °F79 %30.15 in2.5 miSSW (210°)15.0 mphSnowLight Snow
11:15 AM15.8 °F10.4 °F79 %30.14 in2.5 miSSW (210°)15.0 mphSnowLight Snow
11:35 AM15.8 °F10.4 °F79 %30.12 in2.5 miSW (220°)13.8 mphSnowLight Snow
11:55 AM15.8 °F10.4 °F79 %30.11 in2.5 miSW (220°)11.5 mphSnowLight Snow
12:15 PM17.6 °F10.4 °F73 %30.10 in3.0 miSW (230°)12.7 mphSnowLight Snow
12:35 PM17.6 °F10.4 °F73 %30.09 in3.0 miSW (230°)12.7 mphSnowLight Snow
12:55 PM17.6 °F10.4 °F73 %30.08 in3.0 miSW (230°)15.0 mphSnowLight Snow
1:15 PM17.6 °F12.2 °F79 %30.07 in2.0 miWSW (240°)12.7 mphSnowLight Snow
1:35 PM19.4 °F12.2 °F74 %30.07 in2.5 miWSW (240°)16.1 mphSnowLight Snow
1:55 PM19.4 °F12.2 °F74 %30.07 in1.8 miWSW (240°)16.1 mph19.6 mphSnowLight Snow
2:15 PM19.4 °F12.2 °F74 %30.06 in2.0 miWest (260°)11.5 mphSnowLight Snow
2:35 PM19.4 °F12.2 °F74 %30.06 in4.0 miWest (270°)15.0 mph18.4 mphSnowLight Snow
2:55 PM19.4 °F10.4 °F68 %30.07 in10.0 miWest (270°)16.1 mphSnowLight Snow
3:15 PM19.4 °F12.2 °F74 %30.06 in4.0 miWest (260°)16.1 mph20.7 mphSnowLight Snow
3:35 PM19.4 °F12.2 °F74 %30.06 in7.0 miWest (260°)12.7 mphSnowLight Snow
3:55 PM19.4 °F12.2 °F74 %30.07 in10.0 miWest (260°)16.1 mphSnowLight Snow
4:15 PM19.4 °F12.2 °F74 %30.07 in5.0 miWest (260°)12.7 mphSnowLight Snow
4:35 PM19.4 °F14.0 °F80 %30.07 in3.0 miWest (270°)8.1 mphSnowLight Snow
4:55 PM21.2 °F14.0 °F74 %30.07 in5.0 miWNW (290°)12.7 mphSnowLight Snow
5:15 PM21.2 °F14.0 °F74 %30.08 in5.0 miNW (310°)11.5 mphSnowLight Snow
5:35 PM21.2 °F12.2 °F68 %30.09 in10.0 miWNW (290°)17.3 mph23.0 mphOvercast
5:55 PM19.4 °F10.4 °F68 %30.10 in10.0 miWNW (290°)18.4 mph25.3 mphOvercast
6:15 PM19.4 °F10.4 °F68 %30.12 in4.0 miNNW (330°)13.8 mph27.6 mphSnowLight Snow
6:35 PM19.4 °F6.8 °F58 %30.13 in10.0 miNW (320°)18.4 mphScattered Clouds
6:55 PM19.4 °F5.0 °F54 %30.14 in10.0 miNNW (330°)18.4 mph26.5 mphMostly Cloudy
7:15 PM17.6 °F5.0 °F58 %30.16 in10.0 miNW (320°)18.4 mph23.0 mphMostly Cloudy
7:35 PM17.6 °F5.0 °F58 %30.17 in10.0 miNW (320°)15.0 mph24.2 mphClear
7:55 PM15.8 °F10.4 °F79 %30.19 in1.0 miNNW (340°)20.7 mph29.9 mphSnowLight Snow
8:15 PM14.0 °F5.0 °F67 %30.21 in7.0 miNNW (340°)16.1 mph31.1 mphMostly Cloudy
8:35 PM14.0 °F3.2 °F62 %30.22 in10.0 miNNW (340°)21.9 mph28.8 mphScattered Clouds
8:55 PM12.2 °F1.4 °F62 %30.24 in10.0 miNNW (340°)17.3 mph28.8 mphClear
9:15 PM12.2 °F3.2 °F67 %30.26 in10.0 miNorth (350°)19.6 mph28.8 mphScattered Clouds
9:35 PM10.4 °F3.2 °F73 %30.27 in10.0 miNorth (350°)19.6 mph27.6 mphMostly Cloudy
9:55 PM10.4 °F1.4 °F67 %30.29 in10.0 miNorth (360°)18.4 mph24.2 mphMostly Cloudy
10:15 PM10.4 °F-0.4 °F62 %30.30 in10.0 miNorth (350°)17.3 mph20.7 mphScattered Clouds
10:35 PM8.6 °F-0.4 °F67 %30.30 in10.0 miNNW (340°)13.8 mph21.9 mphClear
10:55 PM8.6 °F-0.4 °F67 %30.32 in10.0 miNNW (340°)11.5 mph23.0 mphClear
11:15 PM8.6 °F-0.4 °F67 %30.33 in10.0 miNorth (350°)13.8 mph21.9 mphClear
11:35 PM8.6 °F-0.4 °F67 %30.35 in10.0 miNorth (350°)13.8 mph23.0 mphClear
Hourly data recorded from KEFT, located miles away from Monroe, Wisconsin







STORIES FROM OUR PARTNERS